Starlink 2346

operational
NORAD ID: 47887 Int'l Des: 2021-021 Owner: SPXS Country: US Constellation: starlink
LEOCIRCULARSTARLINK_TYPE

Starlink 2346について

説明を読み込み中...

リアルタイム位置

3D地球を読み込み中...

次回通過

高度履歴

Altitude vs Time

uPlot chart will show altitude changes over time

軌道要素

1 47887U 21021AD 25261.19976340 .00000493 00000-0 51987-4 0 9995
2 47887 53.0550 335.9585 0001039 96.6637 263.4471 15.06393850250051
Epoch: Sep 18, 2025 • Age: 14 hours

現在のステータス

高度 547.3 km
速度 7.59 km/s
衛星直下点 12.89°N, 57.21°E
打ち上げ日 Mar 14, 2021
運用期間 4.5 years
タイプ internet

技術仕様

分類 Payload
質量 260.00 kg
乾燥質量 248.00 kg
総質量 260.00 kg
長さ 0.20 m
直径 2.80 m
スパン 9.00 m
形状 Box + pan
製造者 SPXS
バスタイプ Starlink
フェーズステータス In Orbit
所有者/国 SPXS/US

大規模コンステレーション

Loading constellations...